RYR6958 EIKY-EGCC

Flight info

Callsign RYR6958
Flight time 0h 52m
Altitude 31000
Route SHA3D SHA DCT BOFUM Q37 MALUD
Aircraft B38M/M-SADE3FGILRWY/SB1

Departure

Time 2026-04-22 09:28
Airport Kerry Airport (EIKY)

Arrival

Time 2026-04-22 10:20
Airport Manchester Airport (EGCC)
Time Latitude Longitude Altitude Speed Heading
2026-04-22 09:17 52.18095 -9.53648 99 ft 0 kts 103°
2026-04-22 09:23 52.18093 -9.53634 98 ft 4 kts 102°
2026-04-22 09:23 52.18083 -9.53605 99 ft 4 kts 140°
2026-04-22 09:24 52.18045 -9.53584 97 ft 7 kts 198°
2026-04-22 09:24 52.17995 -9.53620 99 ft 9 kts 173°
2026-04-22 09:24 52.17928 -9.53586 96 ft 8 kts 162°
2026-04-22 09:24 52.17922 -9.53582 97 ft 0 kts 162°
2026-04-22 09:25 52.17917 -9.53580 97 ft 2 kts 161°
2026-04-22 09:25 52.17894 -9.53567 97 ft 5 kts 161°
2026-04-22 09:25 52.17855 -9.53552 97 ft 6 kts 192°
2026-04-22 09:25 52.17827 -9.53625 96 ft 10 kts 236°
2026-04-22 09:26 52.17788 -9.53729 95 ft 9 kts 287°
2026-04-22 09:26 52.17812 -9.53723 98 ft 3 kts 81°
2026-04-22 09:26 52.17814 -9.53686 95 ft 4 kts 69°
2026-04-22 09:26 52.17815 -9.53682 95 ft 0 kts 69°
2026-04-22 09:28 52.17872 -9.53407 98 ft 69 kts 71°
2026-04-22 09:28 52.18123 -9.52231 112 ft 148 kts 70°
2026-04-22 09:28 52.18528 -9.50517 826 ft 169 kts 70°
2026-04-22 09:29 52.18955 -9.48688 2099 ft 169 kts 76°
2026-04-22 09:29 52.19354 -9.46766 2915 ft 190 kts 81°
2026-04-22 09:29 52.19775 -9.44574 3589 ft 214 kts 81°
2026-04-22 09:29 52.20203 -9.42298 4837 ft 216 kts 81°
2026-04-22 09:30 52.20580 -9.39844 5650 ft 229 kts 93°
2026-04-22 09:30 52.20185 -9.37401 6731 ft 223 kts 117°
2026-04-22 09:30 52.19770 -9.34917 7688 ft 240 kts 92°
2026-04-22 09:30 52.20375 -9.32304 8714 ft 263 kts 58°
2026-04-22 09:31 52.21890 -9.30501 9625 ft 291 kts 26°
2026-04-22 09:31 52.23952 -9.29961 10532 ft 308 kts 11°
2026-04-22 09:31 52.26025 -9.29029 11081 ft 314 kts 34°
2026-04-22 09:31 52.27904 -9.27099 11689 ft 327 kts 37°
2026-04-22 09:32 52.29897 -9.25187 12454 ft 337 kts 35°
2026-04-22 09:32 52.31948 -9.23321 13464 ft 338 kts 34°
2026-04-22 09:32 52.34030 -9.21478 14341 ft 343 kts 33°
2026-04-22 09:32 52.36150 -9.19626 15089 ft 348 kts 33°
2026-04-22 09:33 52.38312 -9.17754 15823 ft 354 kts 32°
2026-04-22 09:33 52.40509 -9.15862 16545 ft 360 kts 32°
2026-04-22 09:33 52.42747 -9.13937 17259 ft 366 kts 32°
2026-04-22 09:33 52.45016 -9.11984 17988 ft 371 kts 32°
2026-04-22 09:34 52.47321 -9.09999 18643 ft 377 kts 32°
2026-04-22 09:34 52.49651 -9.07990 19269 ft 381 kts 31°
2026-04-22 09:34 52.52013 -9.05952 19892 ft 385 kts 32°
2026-04-22 09:35 52.56802 -9.01810 21098 ft 393 kts 31°
2026-04-22 09:35 52.59233 -8.99705 21699 ft 397 kts 31°
2026-04-22 09:35 52.61691 -8.97575 22274 ft 401 kts 31°
2026-04-22 09:35 52.64172 -8.95421 22837 ft 405 kts 30°
2026-04-22 09:36 52.66677 -8.93244 23411 ft 409 kts 31°
2026-04-22 09:36 52.69199 -8.91026 23917 ft 413 kts 33°
2026-04-22 09:36 52.71424 -8.88091 24338 ft 410 kts 52°
2026-04-22 09:36 52.72994 -8.84199 24766 ft 407 kts 68°
2026-04-22 09:37 52.74204 -8.79953 25181 ft 411 kts 68°
2026-04-22 09:37 52.75386 -8.75628 25613 ft 414 kts 69°
2026-04-22 09:37 52.76550 -8.71257 26071 ft 417 kts 69°
2026-04-22 09:37 52.77692 -8.66892 26503 ft 421 kts 70°
2026-04-22 09:38 52.78860 -8.62377 26935 ft 424 kts 70°
2026-04-22 09:38 52.80004 -8.57928 27358 ft 427 kts 70°
2026-04-22 09:38 52.81168 -8.53388 27794 ft 431 kts 70°
2026-04-22 09:38 52.82339 -8.48811 28185 ft 434 kts 70°
2026-04-22 09:39 52.83517 -8.44198 28610 ft 437 kts 70°
2026-04-22 09:39 52.84699 -8.39558 29003 ft 440 kts 70°
2026-04-22 09:39 52.85890 -8.34874 29400 ft 443 kts 69°
2026-04-22 09:39 52.87087 -8.30153 29801 ft 445 kts 69°
2026-04-22 09:40 52.87899 -8.26950 30059 ft 447 kts 70°
2026-04-22 09:40 52.89104 -8.22184 30412 ft 450 kts 69°
2026-04-22 09:40 52.90299 -8.17449 30748 ft 453 kts 70°
2026-04-22 09:40 52.91526 -8.12571 31134 ft 453 kts 69°
2026-04-22 09:41 52.92742 -8.07733 31263 ft 455 kts 69°
2026-04-22 09:41 52.93948 -8.02918 31265 ft 452 kts 69°
2026-04-22 09:41 52.96339 -7.93350 31263 ft 452 kts 69°
2026-04-22 09:42 52.98739 -7.83701 31274 ft 452 kts 69°
2026-04-22 09:42 53.01134 -7.74028 31277 ft 453 kts 69°
2026-04-22 09:43 53.03522 -7.64344 31284 ft 453 kts 69°
2026-04-22 09:43 53.05903 -7.54642 31287 ft 454 kts 69°
2026-04-22 09:44 53.08280 -7.44919 31300 ft 454 kts 69°
2026-04-22 09:44 53.10649 -7.35178 31299 ft 454 kts 69°
2026-04-22 09:45 53.13011 -7.25427 31306 ft 455 kts 69°
2026-04-22 09:45 53.15369 -7.15648 31325 ft 455 kts 69°
2026-04-22 09:46 53.17718 -7.05866 31316 ft 455 kts 69°
2026-04-22 09:46 53.20043 -6.96134 31333 ft 455 kts 69°
2026-04-22 09:47 53.22393 -6.86257 31345 ft 455 kts 69°
2026-04-22 09:47 53.24705 -6.76497 31343 ft 455 kts 69°
2026-04-22 09:48 53.27027 -6.66644 31350 ft 455 kts 69°
2026-04-22 09:48 53.29339 -6.56789 31344 ft 456 kts 69°
2026-04-22 09:49 53.31650 -6.46898 31348 ft 457 kts 69°
2026-04-22 09:49 53.33951 -6.36999 31344 ft 457 kts 69°
2026-04-22 09:50 53.36251 -6.27064 31347 ft 458 kts 68°
2026-04-22 09:50 53.38544 -6.17106 31349 ft 458 kts 68°
2026-04-22 09:51 53.40833 -6.07125 31349 ft 459 kts 68°
2026-04-22 09:51 53.43114 -5.97127 31355 ft 460 kts 68°
2026-04-22 09:52 53.45392 -5.87099 31363 ft 460 kts 68°
2026-04-22 09:52 53.47666 -5.77049 31374 ft 461 kts 68°
2026-04-22 09:53 53.49936 -5.66974 31380 ft 461 kts 68°
2026-04-22 09:53 53.52181 -5.56966 31387 ft 461 kts 68°
2026-04-22 09:54 53.53796 -5.46559 31384 ft 462 kts 81°
2026-04-22 09:54 53.54250 -5.35771 31384 ft 463 kts 92°
2026-04-22 09:55 53.53765 -5.30443 31380 ft 461 kts 107°
2026-04-22 09:55 53.52963 -5.25214 31376 ft 463 kts 98°
2026-04-22 09:55 53.52794 -5.14506 31326 ft 448 kts 92°
2026-04-22 09:56 53.52654 -5.09336 31049 ft 440 kts 92°
2026-04-22 09:56 53.52502 -5.04226 30533 ft 438 kts 92°
2026-04-22 09:56 53.52343 -4.99114 29914 ft 437 kts 93°
2026-04-22 09:56 53.52182 -4.94023 29413 ft 434 kts 93°
2026-04-22 09:57 53.52020 -4.88994 28955 ft 430 kts 93°
2026-04-22 09:57 53.51857 -4.83995 28431 ft 427 kts 93°
2026-04-22 09:57 53.51701 -4.79267 27965 ft 425 kts 93°
2026-04-22 09:57 53.51536 -4.74345 27559 ft 420 kts 93°
2026-04-22 09:58 53.51371 -4.69461 27118 ft 417 kts 93°
2026-04-22 09:58 53.51205 -4.64617 26682 ft 414 kts 93°
2026-04-22 09:58 53.51038 -4.59789 26234 ft 412 kts 93°
2026-04-22 09:58 53.50870 -4.55007 25800 ft 410 kts 93°
2026-04-22 09:59 53.50702 -4.50241 25378 ft 407 kts 93°
2026-04-22 09:59 53.50531 -4.45502 24952 ft 405 kts 93°
2026-04-22 09:59 53.50360 -4.40787 24533 ft 404 kts 93°
2026-04-22 09:59 53.50188 -4.36094 24116 ft 402 kts 93°
2026-04-22 10:00 53.50015 -4.31408 23657 ft 400 kts 93°
2026-04-22 10:00 53.49841 -4.26753 23215 ft 398 kts 94°
2026-04-22 10:00 53.49668 -4.22204 22815 ft 394 kts 94°
2026-04-22 10:00 53.49494 -4.17634 22424 ft 390 kts 94°
2026-04-22 10:01 53.49319 -4.13102 22031 ft 387 kts 94°
2026-04-22 10:01 53.49144 -4.08616 21644 ft 384 kts 94°
2026-04-22 10:01 53.48970 -4.04170 21269 ft 380 kts 94°
2026-04-22 10:01 53.48795 -3.99756 20891 ft 377 kts 94°
2026-04-22 10:02 53.48478 -3.95416 20469 ft 374 kts 106°
2026-04-22 10:02 53.47644 -3.91306 20104 ft 370 kts 110°
2026-04-22 10:02 53.46814 -3.87235 19753 ft 367 kts 110°
2026-04-22 10:02 53.45987 -3.83214 19388 ft 363 kts 110°
2026-04-22 10:03 53.45163 -3.79223 19026 ft 360 kts 110°
2026-04-22 10:03 53.44343 -3.75266 18658 ft 357 kts 110°
2026-04-22 10:03 53.43529 -3.71347 18249 ft 354 kts 110°
2026-04-22 10:03 53.42720 -3.67463 17888 ft 350 kts 110°
2026-04-22 10:04 53.41921 -3.63631 17526 ft 345 kts 110°
2026-04-22 10:04 53.41291 -3.59769 17053 ft 345 kts 97°
2026-04-22 10:04 53.41129 -3.55823 16676 ft 342 kts 96°
2026-04-22 10:04 53.40948 -3.51818 16278 ft 339 kts 97°
2026-04-22 10:05 53.40775 -3.47940 15875 ft 337 kts 96°
2026-04-22 10:05 53.40600 -3.44041 15458 ft 335 kts 96°
2026-04-22 10:05 53.40426 -3.40158 15041 ft 333 kts 97°
2026-04-22 10:05 53.40252 -3.36302 14627 ft 331 kts 97°
2026-04-22 10:06 53.40077 -3.32452 14217 ft 330 kts 97°
2026-04-22 10:06 53.39902 -3.28629 13749 ft 328 kts 97°
2026-04-22 10:06 53.39727 -3.24837 13320 ft 326 kts 97°
2026-04-22 10:06 53.39552 -3.21068 12908 ft 323 kts 96°
2026-04-22 10:07 53.39378 -3.17339 12511 ft 320 kts 96°
2026-04-22 10:07 53.39392 -3.13624 12040 ft 322 kts 81°
2026-04-22 10:07 53.40262 -3.10177 11628 ft 321 kts 61°
2026-04-22 10:07 53.41400 -3.07053 11273 ft 309 kts 63°
2026-04-22 10:08 53.42470 -3.04002 10907 ft 299 kts 63°
2026-04-22 10:08 53.43504 -3.01035 10547 ft 290 kts 63°
2026-04-22 10:08 53.44503 -2.98156 10185 ft 282 kts 64°
2026-04-22 10:08 53.45478 -2.95342 9811 ft 278 kts 64°
2026-04-22 10:09 53.46446 -2.92540 9444 ft 277 kts 64°
2026-04-22 10:09 53.47413 -2.89740 9092 ft 276 kts 64°
2026-04-22 10:09 53.48373 -2.86957 8738 ft 275 kts 64°
2026-04-22 10:09 53.49330 -2.84178 8397 ft 274 kts 64°
2026-04-22 10:10 53.50268 -2.81452 8064 ft 274 kts 64°
2026-04-22 10:10 53.51221 -2.78680 7716 ft 273 kts 63°
2026-04-22 10:10 53.52112 -2.75873 7385 ft 270 kts 75°
2026-04-22 10:10 53.52238 -2.72835 7092 ft 260 kts 105°
2026-04-22 10:11 53.51430 -2.70197 6821 ft 253 kts 131°
2026-04-22 10:11 53.49986 -2.68583 6527 ft 252 kts 158°
2026-04-22 10:11 53.48266 -2.68058 6261 ft 249 kts 169°
2026-04-22 10:11 53.46567 -2.67773 6046 ft 241 kts 169°
2026-04-22 10:12 53.44925 -2.67514 5856 ft 234 kts 169°
2026-04-22 10:12 53.43316 -2.67277 5678 ft 232 kts 170°
2026-04-22 10:12 53.41703 -2.67045 5506 ft 232 kts 169°
2026-04-22 10:12 53.40105 -2.66822 5366 ft 227 kts 170°
2026-04-22 10:13 53.38556 -2.66561 5196 ft 219 kts 162°
2026-04-22 10:13 53.37141 -2.65732 4896 ft 214 kts 151°
2026-04-22 10:13 53.35803 -2.64666 4498 ft 213 kts 149°
2026-04-22 10:13 53.34471 -2.63590 4085 ft 212 kts 150°
2026-04-22 10:14 53.33135 -2.62515 3701 ft 214 kts 150°
2026-04-22 10:14 53.31787 -2.61443 3268 ft 215 kts 150°
2026-04-22 10:14 53.30489 -2.60310 3046 ft 202 kts 139°
2026-04-22 10:14 53.29502 -2.58805 3090 ft 185 kts 131°
2026-04-22 10:15 53.28629 -2.57286 2999 ft 177 kts 130°
2026-04-22 10:15 53.27804 -2.55851 2936 ft 165 kts 130°
2026-04-22 10:15 53.27009 -2.54482 3024 ft 165 kts 130°
2026-04-22 10:15 53.26209 -2.53105 3034 ft 165 kts 129°
2026-04-22 10:16 53.25458 -2.51715 2931 ft 162 kts 117°
2026-04-22 10:16 53.25315 -2.49913 2964 ft 160 kts 77°
2026-04-22 10:16 53.25728 -2.48156 3016 ft 165 kts 68°
2026-04-22 10:16 53.26286 -2.46489 2938 ft 169 kts 62°
2026-04-22 10:17 53.26960 -2.44875 2742 ft 171 kts 59°
2026-04-22 10:17 53.27693 -2.43295 2506 ft 172 kts 56°
2026-04-22 10:17 53.28450 -2.41749 2278 ft 173 kts 55°
2026-04-22 10:17 53.29185 -2.40241 2087 ft 163 kts 55°
2026-04-22 10:18 53.29884 -2.38812 1890 ft 153 kts 54°
2026-04-22 10:18 53.30529 -2.37480 1661 ft 143 kts 54°
2026-04-22 10:18 53.31130 -2.36234 1443 ft 132 kts 55°
2026-04-22 10:18 53.31705 -2.35050 1281 ft 130 kts 56°
2026-04-22 10:19 53.32278 -2.33880 1073 ft 130 kts 53°
2026-04-22 10:19 53.32876 -2.32738 872 ft 129 kts 54°
2026-04-22 10:19 53.33439 -2.31552 706 ft 131 kts 56°
2026-04-22 10:19 53.34004 -2.30354 504 ft 132 kts 54°
2026-04-22 10:20 53.34581 -2.29143 307 ft 133 kts 53°
2026-04-22 10:20 53.35142 -2.27984 236 ft 114 kts 54°
2026-04-22 10:20 53.35494 -2.27245 258 ft 58 kts 51°
2026-04-22 10:20 53.35720 -2.26782 266 ft 31 kts 51°
2026-04-22 10:21 53.35802 -2.26679 267 ft 13 kts 358°
2026-04-22 10:21 53.35912 -2.26710 259 ft 20 kts 352°
2026-04-22 10:21 53.36032 -2.26741 258 ft 16 kts 37°
2026-04-22 10:21 53.36076 -2.26630 258 ft 10 kts 63°
2026-04-22 10:22 53.36096 -2.26615 258 ft 3 kts 327°
2026-04-22 10:22 53.36120 -2.26642 258 ft 6 kts 326°
2026-04-22 10:22 53.36149 -2.26675 258 ft 1 kts 325°